643  
ASUS44 KMOB 151512  
RWRMOB  
REGIONAL WEATHER ROUNDUP  
NATIONAL WEATHER SERVICE MOBILE AL  
900 AM CST FRI DEC 15 2017  
 
NOTE: "FAIR" INDICATES FEW OR NO CLOUDS BELOW 12,000 FEET WITH NO  
SIGNIFICANT WEATHER AND/OR S TO VISIBILITY
.  
 
* THESE STATIONS ARE PART OF THE UNIVERSITY OF SOUTH ALABAMA  
MESONET AND ARE NOT UNDER NWS OR FAA QUALITY CONTROL.
 
 
ALZ061>064-151600-  
COASTAL ALABAMA  
 
CITY SKY/WX TMP DP RH WIND PRES REMARKS
 
MOBILE REG APT CLOUDY 46 36 68 N8 30.17R  
BROOKLEY FIELD CLOUDY 47 38 71 N12 30.19R  
USA CAMPUS* NOT AVBL  
DOG RIVER* NOT AVBL  
 
 
CITY SKY/WX TMP DP RH WIND PRES REMARKS
 
GULF SHORES DRIZZLE 49 42 78 N9 30.15R  
 

 
 
ALZ051>060-151600-  
INTERIOR SOUTHWEST AND SOUTH CENTRAL ALABAMA  
 
CITY SKY/WX TMP DP RH WIND PRES REMARKS
 
GREENVILLE CLOUDY 42 32 67 N5 30.14R  
EVERGREEN CLOUDY 42 34 73 N7 30.17R  
ATMORE* N/A N/A N/A N/A VRB8 N/A  
ANDALUSIA/OPP CLOUDY 46 37 71 N10 30.14R  
ANDALUSIA* N/A 43 37 81 N7 30.13R  
FLORALA APT MOSUNNY 47 40 76 VRB5 30.15R  
FLORALA* N/A 46 41 81 W5 30.85R  
 

 
 
FLZ001>006-151600-  
WESTERN FLORIDA PANHANDLE  
 
CITY SKY/WX TMP DP RH WIND PRES REMARKS
 
PENSACOLA CLOUDY 50 42 74 N10 30.14R  
NAS PENSACOLA CLOUDY 50 42 74 N9 30.14R  
MILTON CLOUDY 47 41 80 NW9 30.15R  
WHTNG S FIELD CLOUDY 50 42 74 N12 30.16R  
 
 
CITY SKY/WX TMP DP RH WIND PRES REMARKS
 
JAY* N/A 43 37 81 NW7 30.17R  
DUKE FIELD PTSUNNY 49 41 72 NW8 30.12R  
CRESTVIEW CLOUDY 49 40 71 N7 30.15R  
VALPARAISO PTSUNNY 51 41 69 N8 30.12R  
DESTIN CLOUDY 53 42 66 N8 30.12R  
 

 
 
MSZ076-079-151600-  
INTERIOR SOUTHEAST MISSISSIPPI  
 
CITY SKY/WX TMP DP RH WIND PRES REMARKS
 
LEAKESVILLE* N/A 41 34 75 E7 30.19S  
AGRICOLA* N/A 43 37 81 VRB6 30.17R  
 

 
 
MARINE OBSERVATIONS  
 
STATION/POSITION TIME TEMP WIND PRES WAVE
 
AIR SEA DIR/SP/G HT/PER  
(UTC) (F) (DEG/KT/KT) (MB) (FT/S)  
PASCAGOULA 1442 47 360/ 9/ 12 1021.1R  
PETIT BOIS ISLND 1442 47 10/ 16/ 19 1021.7R  
KATRINA CUT 1430 49 10/ 14 1021.0R  
CEDAR POINT 1430 48 20/ 9 1020.3R  
E DAUPHIN ISLAND 1400 49 350/ 14/ 17 1020.1R  
MIDDLE BAY LIGHT 1430 47 350/ 18 1021.0R  
USCG MOBILE BAY 1442 45 54 10/ 8/ 11 1021.8R  
STATE DOCKS 1442 45 55 1021.6R  
MEAHER PARK 1430 45 350/ 6 1021.3R  
WEEKS BAY 1345 48 1019.0R  
FORT MORGAN 1442 48 10/ 21/ 23 N/A  
12 S ORANGE BCH NOT AVBL  
PENSACOLA BAY 1448 50 55 1020.7R  
64 S DAUPHIN ISL 1500 63 70 360/ 14/ 17 1020.4  
67 S FORT MORGAN 1430 64 1019.3R  
 

 
 
SELECTED LOCATIONS ACROSS THE REGION  
 
CITY SKY/WX TMP DP RH WIND PRES REMARKS
 
NEW ORLEANS LGT RAIN 50 41 71 N9 30.21R  
GULFPORT CLOUDY 48 37 65 N13 30.17R  
PASCAGOULA AP CLOUDY 47 36 65 N9 30.18R  
PASCAGOULA* N/A 46 39 76 NE3 N/A  
HATTIESBURG CLOUDY 43 34 70 N5 30.22R  
LAUREL CLOUDY 41 33 73 N8 30.22R  
MERIDIAN CLOUDY 40 31 70 N6 30.24R  
JACKSON CLOUDY 42 31 64 N6 30.22R  
MONTGOMERY CLOUDY 41 27 57 NW6 30.16R  
TROY CLOUDY 41 36 82 N7 30.14R  
ASHFORD* N/A 43 37 81 N7 30.13R  
DOTHAN N/A N/A N/A N/A MISG 30.12R  
PANAMA CITY CLOUDY 53 43 68 NW6 30.11R  
 

 
 
 
 
CLICK HERE TO GO TO PREVIOUS BULLETINS.

The Nexlab AL Page
The Nexlab FL Page
The Nexlab MS Page Main Text Page